Flag for Greece Weather past 2 weeks in Nikaia, Greece

Now
57 °F

Passing clouds.


Feels Like: 57 °F
Forecast: 47 / 60 °F
Wind: 5 mph from Northeast

Location: Elefsis Airport

Current Time: Dec 25, 2014 at 8:31:54 PM

Latest Report: Dec 25, 2014 at 7:50 PM


Visibility: N/A

Pressure: 30.07 "Hg

Humidity: 72%

Dew point: 48 °F

Location of NikaiaLocation

Historic Weather in Nikaia — Graph

°F

Nikaia temperature yesterday

Maximum temperature yesterday: 64 °F (at 2:50 PM)
Minimum temperature yesterday: 39 °F (at 5:50 AM)
Average temperature yesterday: 50 °F

Past Weeks' High & Low Weather Summary

 TemperatureHumidityPressure
High64 °F (Dec 20, 3:20 PM)94% (Dec 10, 9:50 PM)30.42 "Hg (Dec 10, 9:50 PM)
Low36 °F (Dec 23, 4:20 AM)34% (Dec 23, 1:50 PM)29.74 "Hg (Dec 12, 4:20 AM)
Average52 °F75%30.15 "Hg
* Reported Dec 10 7:20 PM — Dec 25 7:20 PM, Nikaia, Weather by CustomWeather, © 2014

Note: Actual official high and low records may vary slightly from our data, if they occured in-between our weather recording intervals... More about our weather records

Advertising

Nikaia weather history for previous 24 hours

 ConditionsComfort  
Time TempWeatherWind HumidityBarometerVisibility
7:20 PM
Dec 25
59 °FPassing clouds.8 mph68%30.07 "HgN/A
6:50 PM57 °FPassing clouds.8 mph72%30.07 "HgN/A
6:20 PM57 °FPassing clouds.5 mph72%30.07 "HgN/A
5:50 PM59 °FPassing clouds.8 mph68%30.07 "HgN/A
5:20 PM59 °FPassing clouds.9 mph72%30.07 "HgN/A
4:50 PM59 °FPassing clouds.9 mph72%30.07 "HgN/A
4:20 PM61 °FPassing clouds.9 mph68%30.07 "HgN/A
3:50 PM63 °FPassing clouds.10 mph59%30.07 "HgN/A
3:20 PM64 °FPassing clouds.No wind60%30.07 "HgN/A
2:50 PM63 °FPassing clouds.No wind64%30.07 "HgN/A
2:20 PM64 °FPassing clouds.5 mph60%30.09 "HgN/A
1:50 PM63 °FPassing clouds.No wind64%30.09 "HgN/A
1:20 PM63 °FPassing clouds.No wind64%30.12 "HgN/A
12:50 PM61 °FPassing clouds.No wind68%30.12 "HgN/A
12:20 PM61 °FPassing clouds.No wind68%30.15 "HgN/A
11:50 AM61 °FPassing clouds.No wind68%30.15 "HgN/A
11:20 AM59 °FSunny.No wind68%30.18 "Hg10 mi
10:50 AM59 °FSunny.No wind68%30.18 "Hg10 mi
10:20 AM57 °FSunny.No wind67%30.21 "Hg10 mi
9:50 AM54 °FSunny.No wind77%30.21 "Hg10 mi
9:20 AM50 °FSunny.No wind82%30.18 "Hg10 mi
8:50 AM46 °FSunny.No wind87%30.18 "Hg10 mi
8:20 AM43 °FSunny.No wind93%30.18 "Hg10 mi
7:50 AM41 °FSunny.No wind93%30.18 "Hg10 mi
7:20 AM43 °FClear.No wind87%30.18 "Hg10 mi
6:50 AM43 °FClear.No wind87%30.18 "Hg10 mi
6:20 AM43 °FClear.No wind93%30.18 "Hg10 mi
5:20 AM45 °FClear.No wind87%30.18 "Hg10 mi
4:50 AM45 °FClear.No wind87%30.18 "Hg10 mi
3:50 AM45 °FClear.5 mph87%30.21 "Hg10 mi
3:20 AM43 °FClear.5 mph93%30.21 "Hg10 mi
2:50 AM45 °FClear.No wind87%30.21 "Hg10 mi
2:20 AM43 °FClear.No wind93%30.21 "Hg10 mi
1:50 AM43 °FClear.No wind93%30.21 "Hg10 mi
1:20 AM45 °FClear.No wind87%30.21 "Hg10 mi
12:50 AM45 °FClear.No wind87%30.21 "Hg10 mi
12:20 AM46 °FClear.5 mph87%30.24 "Hg10 mi
11:50 PM
Dec 24
46 °FClear.5 mph87%30.24 "Hg10 mi
11:20 PM46 °FClear.No wind87%30.24 "Hg10 mi
10:50 PM46 °FClear.No wind87%30.24 "Hg10 mi
10:20 PM46 °FClear.5 mph87%30.24 "Hg10 mi
9:50 PM46 °FClear.5 mph87%30.24 "Hg10 mi
9:20 PM46 °FClear.6 mph87%30.27 "Hg10 mi
8:50 PM46 °FClear.6 mph87%30.27 "Hg10 mi
8:20 PM48 °FClear.5 mph82%30.27 "Hg10 mi
Weather by CustomWeather, © 2014

See weather overviewHow to use our weather pages